Regional Weather Roundup
Issued by NWS Cleveland, OH

Home | Current Version | Previous Version | Text Only | Print | Product List | Glossary On
Versions: 1 2 3 4 5 6 7 8 9 10 11 12 13 14 15 16 17 18 19 20 21 22 23 24 25 26 27 28 29 30 31 32 33 34 35 36 37 38 39 40 41 42 43 44 45 46 47 48 49 50
000
ASUS41 KCLE 220210
RWRCLE
OHIO REGIONAL WEATHER ROUNDUP
NATIONAL WEATHER SERVICE CLEVELAND, OH
1000 PM EDT THU SEP 21 2017

NOTE: "FAIR" INDICATES FEW OR NO CLOUDS BELOW 12,000 FEET WITH NO
SIGNIFICANT WEATHER AND/OR OBSTRUCTIONS TO VISIBILITY.

OHZ001>008-015>018-024>027-034-035-043-044-220300-
   NORTHWEST OHIO

CITY           SKY/WX    TMP DP  RH WIND       PRES   REMARKS
DEFIANCE       CLEAR     74  70  87 CALM      30.06S
FINDLAY        CLEAR     79  68  69 SE3       30.07R
TOLEDO EXPRESS CLOUDY    78  75  90 N12       30.07R
TOLEDO EXEC    CLEAR     75  69  81 E5        30.07S
LIMA           CLEAR     70  69  97 CALM      30.08R
$$

OHZ009>014-019>023-028>033-038-089-220300-
   NORTHEAST OHIO

CITY           SKY/WX    TMP DP  RH WIND       PRES   REMARKS
CLE-HOPKINS    PTCLDY    78  62  57 E5        30.11R
CLE-LAKEFRONT  CLEAR     76  63  64 E3        30.08R
CUY CO. ARPT   PTCLDY    73  64  73 CALM      30.11R
LORAIN-ELYRIA  CLEAR     67  61  81 E3        30.09S
ASHTABULA      CLEAR     65  62  90 CALM      30.13R
AKRON-CANTON   PTCLDY    74  63  68 NE9       30.11R
WOOSTER        PTCLDY    66  65  96 E3        30.11S
MANSFIELD      CLEAR     74  65  73 NE6       30.11R
YOUNGSTOWN     PTCLDY    70  64  81 E7        30.12R
$$

OHZ042-051>053-060>062-070>072-077>081-220300-
  SOUTHWEST OHIO

CITY           SKY/WX    TMP DP  RH WIND       PRES   REMARKS
CINC-COVINGTON PTCLDY    74  72  93 CALM      30.07R
CINC-LUNKEN    PTCLDY    74  72  93 CALM      30.06R
HAMILTON       PTCLDY    73  71  93 CALM      30.07R
DAYTON         PTCLDY    75  68  78 CALM      30.09R
WRIGHT-PAT AFB MOCLDY    74  71  91 CALM      30.07R
DAYTON GENERAL PTCLDY    76  70  82 CALM      30.07R
WILMINGTON     CLEAR     70  68  93 SE3       30.08R
$$

OHZ036-037-039>041-045>050-054>059-063>069-073>076-082>088-220300-
  CENTRAL AND SOUTHEAST OHIO

CITY           SKY/WX    TMP DP  RH WIND       PRES   REMARKS
COLUMBUS       PTCLDY    75  68  78 CALM      30.07S
OSU AIRPORT    CLEAR     75  68  78 S3        30.08R
BOLTON FIELD   CLEAR     71  67  85 SW7       30.08F
RICKENBACK AFB PTCLDY    74  67  78 CALM      30.07S
NEWARK         PTCLDY    69  67  93 CALM      30.08S
MARION         PTCLDY    75  65  70 SE6       30.09R
LANCASTER      CLEAR     67  66  97 CALM      30.09R
ZANESVILLE     CLEAR     71  66  84 CALM      30.09R
NEW PHILLY     NOT AVBL
$$




USA.gov is the U.S. government's official web portal to all federal, state and local government web resources and services.